[[{"header":{"parameterUnit":"m.s-1","parameterCategory":1,"la1":30.2991,"la2":30.254,"lo1":-89.0895,"lo2":-89.0444,"dy":0.0017,"dx":0.0017,"nx":28,"ny":28,"refTime":"2023-10-13T21:00:00:Z","depth":0,"parameterNumber":2,"parameterNumberName":"U-component_of_WINDS"},"data":[0,0,0,0,0,0,0,0,0,0,0,0,0,0,0,0,0,0,0,0,0,0,0,0,0,0,0,0,0,0,0,0,0,0,0,0,0,0,0,0,0,0,0,0,0,0,0,0,0,0,0,0,0,0,0,0,0,0,0.4229,0.4229,0,0.4201,0.4201,0.42,0.4194,0.4195,0.4195,0.4195,0.4164,0.4163,0.4162,0,0,0,0,0,0,0,0,0,0,0,0,0,0.4276,0.4275,0.4229,0.4229,0.4228,0.4201,0.4201,0.42,0.4194,0.4195,0.4195,0.4195,0.4164,0.4163,0.4162,0,0,0,0,0,0,0,0,0,0,0,0,0,0.4252,0.4275,0.4229,0.4222,0.4221,0.4201,0.4201,0.42,0.4194,0.4195,0.4195,0.4195,0.4164,0.4163,0.4161,0.4145,0,0,0.4157,0.4156,0,0,0,0,0,0,0,0,0.4254,0.4251,0.4223,0.4223,0.4221,0.4202,0.4206,0.4182,0.4194,0.4204,0.4195,0.4195,0.4176,0.4173,0.4167,0.4144,0.4143,0.4157,0.4156,0.4155,0.4155,0,0,0,0,0,0,0,0.4255,0.4252,0.4218,0.4223,0.4222,0.422,0.4217,0.4201,0.4189,0.4204,0.4203,0.42,0.4175,0.4169,0.4167,0.4142,0.4157,0.4155,0.4154,0.4154,0.4106,0.4105,0,0,0,0,0,0,0.4258,0.4253,0.4219,0.4217,0.4239,0.4219,0.4216,0.4208,0.4189,0.4186,0.42,0.42,0.4171,0.4168,0.4165,0.4146,0.4155,0.4154,0.4153,0.4106,0.4106,0.4105,0,0,0,0,0,0,0.426,0.4255,0.422,0.4235,0.423,0.4218,0.4209,0.4207,0.42,0.4186,0.4183,0.4195,0.4172,0.4168,0.4151,0.4145,0.4153,0.4151,0.4106,0.4106,0.4105,0.4107,0,0,0,0,0,0,0.4261,0.4256,0.425,0.4235,0.423,0.4206,0.4208,0.4206,0.4198,0.4198,0.4181,0.4179,0.4171,0.4153,0.4149,0.4143,0.415,0.4107,0.4106,0.4106,0.4107,0.4106,0.4106,0,0,0,0,0,0.4263,0.425,0.4249,0.4245,0.4222,0.4206,0.4202,0.4195,0.4198,0.4191,0.4182,0.4179,0.4147,0.4152,0.4147,0.414,0.4107,0.4106,0.4106,0.4108,0.4107,0.4106,0,0,0,0,0,0,0.4263,0.4248,0.4247,0.423,0.4219,0.4205,0.4196,0.4194,0.4182,0.4182,0.4173,0.4169,0.4153,0.4145,0.4151,0.4124,0.4127,0.4125,0.413,0.4129,0.4128,0.413,0.4149,0,0,0,0,0,0.4262,0.425,0.4238,0.4224,0.4219,0.4209,0.4201,0.4197,0.4185,0.418,0.417,0.4158,0.4145,0.4137,0.4124,0.4107,0.4103,0.41,0.4099,0.4099,0.4097,0.4088,0.4086,0.4103,0.4103,0.4103,0,0,0.4257,0.4248,0.4241,0.4224,0.4215,0.4203,0.4205,0.4192,0.4183,0.4178,0.4162,0.4154,0.4141,0.4124,0.4116,0.4116,0.4092,0.4098,0.4097,0.4096,0.4087,0.4085,0.4084,0.4102,0.4102,0.4102,0,0,0.4244,0.4236,0.4224,0.4216,0.4203,0.4197,0.4194,0.4181,0.4176,0.416,0.4156,0.4146,0.4123,0.4114,0.4107,0.4093,0.4089,0.4089,0.4084,0.4076,0.4074,0.4073,0.4068,0.4067,0.4087,0.4087,0.4087,0,0.424,0.4223,0.4217,0.4205,0.4198,0.4195,0.4182,0.4175,0.4158,0.4153,0.4155,0.4128,0.4119,0.41,0.4097,0.4091,0.4087,0.409,0.4075,0.4074,0.4073,0.4068,0.4066,0.4087,0.4087,0.4087,0.4087,0,0.4219,0.4207,0.4199,0.4185,0.4177,0.4164,0.4157,0.4149,0.4146,0.414,0.4125,0.4114,0.4099,0.4095,0.4091,0.4076,0.4077,0.4077,0.4079,0.4071,0.4067,0.4065,0.4087,0.4087,0.4087,0.4087,0,0,0.4202,0.4188,0.4184,0.4179,0.4166,0.4157,0.4145,0.4132,0.4126,0.4115,0.4105,0.4088,0.4089,0.408,0.4076,0.4068,0.4059,0.4069,0.4069,0.4067,0.4042,0.4042,0.404,0.4057,0.4057,0.4057,0.4043,0,0.4187,0.4166,0.4162,0.4144,0.4134,0.4132,0.4122,0.4113,0.4108,0.4098,0.4091,0.4079,0.4081,0.4076,0.4069,0.4061,0.4053,0.4062,0.4047,0.4047,0.405,0.4037,0.4036,0.4024,0.4041,0.4041,0.4041,0,0.4165,0.4156,0.4138,0.4128,0.4124,0.4115,0.4104,0.4094,0.4085,0.4081,0.4073,0.407,0.4058,0.4062,0.4045,0.4052,0.4046,0.4041,0.4041,0.4038,0.4042,0.4034,0.402,0.4018,0.4038,0.4038,0.4038,0,0.4155,0.4138,0.4125,0.4121,0.4109,0.4103,0.4098,0.4088,0.4082,0.4072,0.4068,0.4056,0.405,0.4041,0.4035,0.4039,0.4019,0.4023,0.4016,0.4016,0.4011,0.4011,0.3995,0.4008,0.4008,0.4008,0.4008,0,0.4138,0.4126,0.4121,0.4113,0.41,0.4096,0.4084,0.4079,0.4071,0.4062,0.406,0.4051,0.4044,0.4035,0.403,0.4018,0.4015,0.4011,0.401,0.4011,0.4011,0.4006,0.4006,0.4008,0.4008,0.4008,0.4008,0,0.4123,0.4119,0.4105,0.4096,0.4094,0.4085,0.4078,0.407,0.4066,0.4054,0.4051,0.4044,0.4033,0.4027,0.4012,0.4009,0.3995,0.3994,0.3998,0.3998,0.3991,0.3992,0.397,0.3968,0.3983,0.3983,0.3983,0,0.4112,0.4103,0.4095,0.4089,0.4084,0.4075,0.4069,0.4065,0.4059,0.4049,0.4042,0.4031,0.4022,0.4005,0.3998,0.3988,0.3986,0.398,0.3984,0.3986,0.3986,0.3986,0.3986,0.3978,0.3978,0.3978,0.3978,0,0.4092,0.4091,0.4083,0.4074,0.4067,0.406,0.4053,0.4048,0.4043,0.4036,0.4026,0.4019,0.4006,0.3995,0.3985,0.3979,0.3978,0.3977,0.3975,0.3975,0.3978,0.3976,0.3996,0.3977,0.3977,0.3977,0.3977,0.3977,0.4078,0.4071,0.4065,0.4056,0.4051,0.4044,0.4037,0.4033,0.4025,0.4014,0.4013,0.4002,0.3994,0.398,0.3975,0.3966,0.3967,0.3964,0.3963,0.3962,0.3962,0.3981,0.3964,0.3964,0.3964,0.3964,0.3964,0,0.4058,0.4054,0.4047,0.4038,0.4031,0.4032,0.4025,0.4019,0.401,0.4003,0.3996,0.3984,0.3975,0.3968,0.3959,0.3953,0.3952,0.3951,0.395,0.3949,0.3961,0.3964,0.3951,0.3951,0.3951,0.3951,0.3951,0.3952,0.4047,0.4035,0.4034,0.402,0.4017,0.4007,0.4003,0.3997,0.3992,0.398,0.3973,0.3969,0.3963,0.3953,0.3945,0.3943,0.394,0.3938,0.3936,0.3947,0.3948,0.3949,0.3952,0.3937,0.3937,0.3925,0.3925,0.3925]},{"header":{"parameterUnit":"m.s-1","parameterCategory":1,"la1":30.2991,"la2":30.254,"lo1":-89.0895,"lo2":-89.0444,"dy":0.0017,"dx":0.0017,"nx":28,"ny":28,"refTime":"2023-10-13T21:00:00:Z","depth":0,"parameterNumber":3,"parameterNumberName":"V-component_of_WINDS"},"data":[0,0,0,0,0,0,0,0,0,0,0,0,0,0,0,0,0,0,0,0,0,0,0,0,0,0,0,0,0,0,0,0,0,0,0,0,0,0,0,0,0,0,0,0,0,0,0,0,0,0,0,0,0,0,0,0,0,0,-2.5918,-2.5919,0,-2.6007,-2.6008,-2.6009,-2.6046,-2.6046,-2.6046,-2.6045,-2.613,-2.6133,-2.6135,0,0,0,0,0,0,0,0,0,0,0,0,0,-2.5777,-2.578,-2.5918,-2.5919,-2.592,-2.6007,-2.6008,-2.6009,-2.6046,-2.6046,-2.6046,-2.6045,-2.613,-2.6132,-2.6135,0,0,0,0,0,0,0,0,0,0,0,0,0,-2.5849,-2.578,-2.5918,-2.5949,-2.5953,-2.6006,-2.6008,-2.6009,-2.6046,-2.6046,-2.6046,-2.6045,-2.6129,-2.6132,-2.6136,-2.6163,0,0,-2.6147,-2.6148,0,0,0,0,0,0,0,0,-2.5845,-2.5854,-2.5944,-2.5947,-2.5951,-2.6015,-2.5989,-2.606,-2.6046,-2.601,-2.6045,-2.6045,-2.6092,-2.6098,-2.6115,-2.6167,-2.617,-2.6147,-2.6149,-2.6151,-2.6152,0,0,0,0,0,0,0,-2.584,-2.5851,-2.5953,-2.5945,-2.595,-2.5958,-2.5968,-2.6003,-2.6051,-2.6014,-2.6017,-2.6027,-2.6094,-2.6112,-2.6118,-2.6171,-2.6147,-2.615,-2.6152,-2.6154,-2.6252,-2.6252,0,0,0,0,0,0,-2.5831,-2.5846,-2.595,-2.5956,-2.5897,-2.5961,-2.5972,-2.5995,-2.6051,-2.6059,-2.6027,-2.6028,-2.6106,-2.6113,-2.6121,-2.6158,-2.6151,-2.6154,-2.6156,-2.6252,-2.6252,-2.6253,0,0,0,0,0,0,-2.5827,-2.5839,-2.5947,-2.5902,-2.5916,-2.5963,-2.5989,-2.5997,-2.6015,-2.6061,-2.6069,-2.6037,-2.6106,-2.6116,-2.6153,-2.6161,-2.6156,-2.6159,-2.6251,-2.6252,-2.6252,-2.6231,0,0,0,0,0,0,-2.5823,-2.5838,-2.5849,-2.5902,-2.5918,-2.5978,-2.5989,-2.5999,-2.6022,-2.6024,-2.6072,-2.608,-2.6106,-2.6147,-2.6157,-2.6166,-2.6162,-2.625,-2.6251,-2.6252,-2.6231,-2.6231,-2.6231,0,0,0,0,0,-2.5818,-2.5838,-2.585,-2.5862,-2.5934,-2.5978,-2.5988,-2.6019,-2.6022,-2.6034,-2.6064,-2.6079,-2.6159,-2.6151,-2.6162,-2.6172,-2.625,-2.6251,-2.6252,-2.6231,-2.6231,-2.6231,0,0,0,0,0,0,-2.5782,-2.5845,-2.5859,-2.5897,-2.5932,-2.5985,-2.6,-2.6018,-2.6051,-2.6052,-2.6088,-2.6099,-2.6133,-2.6156,-2.6146,-2.6203,-2.6206,-2.6209,-2.6186,-2.6186,-2.6186,-2.618,-2.6165,0,0,0,0,0,-2.5779,-2.5811,-2.5864,-2.5892,-2.591,-2.5952,-2.5972,-2.5994,-2.6032,-2.6046,-2.6079,-2.6114,-2.6147,-2.6168,-2.6201,-2.6235,-2.6247,-2.6248,-2.6248,-2.6247,-2.6249,-2.6271,-2.6273,-2.6256,-2.6256,-2.6256,0,0,-2.5771,-2.581,-2.5828,-2.5886,-2.5916,-2.5949,-2.5964,-2.5997,-2.6021,-2.6051,-2.6089,-2.6114,-2.6155,-2.6192,-2.6209,-2.6212,-2.6257,-2.6248,-2.6248,-2.625,-2.6272,-2.6274,-2.6275,-2.6257,-2.6256,-2.6256,0,0,-2.5776,-2.5808,-2.5836,-2.5867,-2.5914,-2.5943,-2.5949,-2.6,-2.6019,-2.6059,-2.6083,-2.6111,-2.6167,-2.6196,-2.6218,-2.6237,-2.6253,-2.6247,-2.6245,-2.6266,-2.6268,-2.6269,-2.6277,-2.6279,-2.6249,-2.6249,-2.6249,0,-2.576,-2.5811,-2.5848,-2.5881,-2.5906,-2.5938,-2.5967,-2.5994,-2.6048,-2.6065,-2.6068,-2.6141,-2.617,-2.6216,-2.6221,-2.6237,-2.6246,-2.6241,-2.6265,-2.6267,-2.6268,-2.6277,-2.6279,-2.6248,-2.6248,-2.6248,-2.6248,0,-2.5791,-2.5826,-2.5844,-2.5899,-2.5926,-2.5956,-2.5997,-2.602,-2.604,-2.6068,-2.6109,-2.6146,-2.6189,-2.6201,-2.6219,-2.6249,-2.625,-2.6258,-2.6262,-2.6269,-2.6277,-2.628,-2.6247,-2.6247,-2.6247,-2.6248,0,0,-2.5772,-2.5851,-2.5856,-2.5883,-2.5939,-2.5966,-2.5998,-2.6043,-2.6062,-2.6099,-2.6127,-2.6176,-2.6186,-2.6211,-2.6233,-2.6251,-2.6266,-2.6258,-2.6259,-2.6259,-2.6303,-2.6297,-2.63,-2.6277,-2.6278,-2.6278,-2.63,0,-2.5785,-2.5847,-2.5882,-2.5929,-2.5963,-2.5995,-2.6023,-2.606,-2.6088,-2.612,-2.6149,-2.6184,-2.6193,-2.6209,-2.6229,-2.626,-2.6276,-2.6259,-2.6303,-2.6305,-2.6293,-2.6304,-2.6297,-2.6316,-2.6304,-2.6304,-2.6305,0,-2.5806,-2.5847,-2.5898,-2.5953,-2.5968,-2.5994,-2.6039,-2.6069,-2.6112,-2.6131,-2.6161,-2.6184,-2.6219,-2.6221,-2.627,-2.6259,-2.6279,-2.6297,-2.6299,-2.6304,-2.6305,-2.6311,-2.6322,-2.6326,-2.631,-2.6309,-2.6309,0,-2.579,-2.5856,-2.5896,-2.5918,-2.5982,-2.6,-2.6027,-2.607,-2.6095,-2.6134,-2.6151,-2.6192,-2.6215,-2.6246,-2.628,-2.6278,-2.6327,-2.633,-2.6343,-2.6342,-2.6352,-2.6351,-2.6368,-2.6364,-2.6364,-2.6364,-2.6363,0,-2.58,-2.583,-2.589,-2.5915,-2.595,-2.599,-2.6024,-2.6053,-2.6092,-2.6123,-2.6152,-2.6179,-2.6222,-2.6255,-2.6282,-2.632,-2.6329,-2.6345,-2.6352,-2.6343,-2.6341,-2.6357,-2.6357,-2.6364,-2.6364,-2.6364,-2.6364,0,-2.5786,-2.5828,-2.5874,-2.5933,-2.5949,-2.5972,-2.6022,-2.6047,-2.6078,-2.6116,-2.6127,-2.6174,-2.6215,-2.6253,-2.6305,-2.6323,-2.6362,-2.637,-2.6348,-2.6352,-2.6363,-2.6362,-2.6391,-2.6398,-2.6389,-2.6389,-2.6389,0,-2.579,-2.5815,-2.5878,-2.5902,-2.593,-2.5967,-2.5995,-2.6036,-2.6063,-2.6116,-2.6134,-2.6178,-2.6215,-2.6279,-2.6317,-2.6358,-2.6368,-2.6375,-2.6374,-2.6365,-2.6369,-2.6368,-2.6371,-2.6375,-2.6374,-2.6374,-2.6374,0,-2.5793,-2.5813,-2.5853,-2.59,-2.5933,-2.5972,-2.6011,-2.6028,-2.6077,-2.6106,-2.6149,-2.6178,-2.6235,-2.6278,-2.6325,-2.6351,-2.6371,-2.6375,-2.638,-2.6371,-2.6359,-2.6367,-2.6348,-2.6374,-2.6374,-2.6374,-2.6374,-2.6374,-2.5789,-2.5814,-2.5863,-2.5907,-2.5942,-2.5979,-2.6006,-2.6042,-2.608,-2.6131,-2.6153,-2.6198,-2.6242,-2.6307,-2.6334,-2.6369,-2.6373,-2.638,-2.6382,-2.6383,-2.6383,-2.6353,-2.6377,-2.6377,-2.6377,-2.6377,-2.6378,0,-2.5795,-2.5829,-2.5869,-2.5926,-2.596,-2.5979,-2.6024,-2.6051,-2.6091,-2.6132,-2.617,-2.6221,-2.6264,-2.6307,-2.6352,-2.6372,-2.6382,-2.6382,-2.6381,-2.6387,-2.6376,-2.6367,-2.6373,-2.6373,-2.6373,-2.6373,-2.6373,-2.6373,-2.5802,-2.5846,-2.5872,-2.5934,-2.5968,-2.6014,-2.6039,-2.6073,-2.6107,-2.6164,-2.6201,-2.623,-2.6272,-2.6321,-2.6361,-2.6372,-2.6388,-2.6386,-2.6399,-2.6388,-2.6388,-2.6388,-2.638,-2.6388,-2.6388,-2.6408,-2.6409,-2.6409]}]]